Terug naar catalogus

CZ-6A DEB

ActiefSSO
NORAD 56626·DEBRIS·🇨🇳 China

Gelanceerd Nov 11, 2022 vanaf Taiyuan Satellite Launch Center

Loading…

Volgende Passages (komende 24 uur)

TLE

VersSource: Space-Track

Epoch: Sep 13, 2026, 08:48 UTC

1 56626U 22151AFA 26256.36702709  .00000422  00000-0  20422-3 0  9992
2 56626  98.8061 289.4880 0008634 167.3050 192.8347 14.23770700176505

Volg CZ-6A DEB in realtime met AllMySat

Download on the App Store